Flag for U.S.A. Weather past 2 weeks in Stockton, California, U.S.A.

Now
47 °F

Sunny.


Feels Like: 43 °F
Forecast: 38 / 53 °F
Wind: 7 mph from North

Location: Stockton Metropolitan Airport

Current Time: Dec 26, 2014 at 10:44:07 AM

Latest Report: Dec 26, 2014 at 9:55 AM


Visibility: 10 mi

Pressure: 30.19 "Hg

Humidity: 59%

Dew point: 33 °F

Location of StocktonLocation

Historic Weather in Stockton — Graph

°F

Stockton temperature yesterday

Maximum temperature yesterday: 57 °F (at 1:55 PM)
Minimum temperature yesterday: 43 °F (at 6:55 AM)
Average temperature yesterday: 49 °F

Past Weeks' High & Low Weather Summary

 TemperatureHumidityPressure
High65 °F (Dec 11, 9:55 AM)100% (Dec 11, 1:02 PM)30.29 "Hg (Dec 11, 1:02 PM)
Low35 °F (Dec 26, 5:55 AM)39% (Dec 25, 1:55 PM)29.59 "Hg (Dec 11, 8:55 AM)
Average52 °F87%30.06 "Hg
* Reported Dec 11 8:55 AM — Dec 26 8:55 AM, Stockton, Weather by CustomWeather, © 2014

Note: Actual official high and low records may vary slightly from our data, if they occured in-between our weather recording intervals... More about our weather records

Advertising

Stockton weather history for previous 24 hours

 ConditionsComfort  
Time TempWeatherWind HumidityBarometerVisibility
8:55 AM
Dec 26
41 °FSunny.No wind80%30.17 "Hg10 mi
7:55 AM36 °FSunny.No wind89%30.15 "Hg10 mi
6:55 AM36 °FClear.3 mph85%30.14 "Hg10 mi
5:55 AM35 °FClear.5 mph85%30.12 "Hg10 mi
4:55 AM38 °FClear.6 mph76%30.11 "Hg10 mi
3:55 AM40 °FClear.7 mph73%30.09 "Hg10 mi
2:55 AM41 °FClear.9 mph70%30.08 "Hg10 mi
1:55 AM43 °FClear.12 mph68%30.07 "Hg10 mi
12:55 AM43 °FClear.10 mph74%30.06 "Hg10 mi
11:55 PM
Dec 25
43 °FClear.13 mph74%30.06 "Hg10 mi
10:55 PM43 °FClear.10 mph76%30.08 "Hg10 mi
9:55 PM45 °FClear.13 mph71%30.07 "Hg10 mi
8:55 PM47 °FClear.13 mph66%30.06 "Hg10 mi
7:55 PM49 °FClear.13 mph59%30.06 "Hg10 mi
6:55 PM50 °FClear.13 mph54%30.06 "Hg10 mi
5:55 PM51 °FClear.15 mph54%30.04 "Hg10 mi
4:55 PM53 °FClear.18 mph48%30.03 "Hg10 mi
3:55 PM56 °FSunny.15 mph44%30.02 "Hg10 mi
2:55 PM57 °FSunny.22 mph39%30.01 "Hg10 mi
1:55 PM57 °FSunny.24 mph39%30.00 "Hg10 mi
12:55 PM56 °FSunny.29 mph40%30.02 "Hg10 mi
11:55 AM55 °FSunny.17 mph47%30.05 "Hg10 mi
10:55 AM53 °FSunny.17 mph55%30.08 "Hg10 mi
Weather by CustomWeather, © 2014

See weather overviewHow to use our weather pages